Regional Weather Roundup
Issued by NWS

Home | Current Version | Previous Version | Graphics & Text | Print | Product List | Glossary On
Versions: 1 2 3 4 5 6 7 8 9 10 11 12 13 14 15 16 17 18 19 20 21 22 23 24 25 26 27 28 29 30 31 32 33 34 35 36 37 38 39 40 41 42 43 44 45 46 47 48 49 50
130
ASUS43 KIND 181209
RWRIN

WEATHER ROUNDUP FOR INDIANA
NATIONAL WEATHER SERVICE INDIANAPOLIS IN
700 AM EST THU JAN 18 2018

NOTE: "FAIR" INDICATES FEW OR NO CLOUDS BELOW 12,000 FEET WITH NO
SIGNIFICANT WEATHER AND/OR OBSTRUCTIONS TO VISIBILITY.

* - STATION DOES NOT REPORT WEATHER SUCH AS PRECIPITATION OR FOG.

+ - STATION NOT QUALITY CONTROLLED BY THE NATIONAL WEATHER SERVICE.
    USE DATA WITH CAUTION...ESPECIALLY DEWPOINT AND RELATIVE
    HUMIDITY OBSERVATIONS.

INZ001>003-010>013-019-020-181300-
NORTHWEST INDIANA

CITY           SKY/WX    TMP DP  RH WIND       PRES   REMARKS
KNOX *+        FAIR      16   9  73 SW12      30.21R WCI   3
LA PORTE +     FAIR      12   7  79 SW8       30.19R WCI   0
6HR MIN TEMP:  12; 6HR MAX TEMP:  15;

MICHIGAN CITY+ FAIR      16   9  73 SW14      30.19S WCI   1
MONTICELLO +   FAIR      15   7  72 SW14G20   30.25S WCI   0
6HR MIN TEMP:  14; 6HR MAX TEMP:  15;

RENSSELAER +   FAIR      16   9  73 SW15      30.24S WCI   1
VALPARAISO     FAIR      15   8  73 SW13      30.20R WCI   1
6HR MIN TEMP:  15; 6HR MAX TEMP:  16;


$$

LMZ046-743>745-181300-
SOUTHERN LAKE MICHIGAN

STATION/POSITION TIME  TEMP    WIND        PRES    WAVE
                       AIR SEA DIR/SP/G            HT
                 (UTC) (F)     (DEG/KT/KT) (MB)    (FT)
BURNS HARBOR     1130   17     230/ 12/ 15 1023.0R
MICHIGAN CITY    1140   18     210/ 19/ 24   N/A

$$

INZ004-005-014>016-021>024-181300-
NORTH CENTRAL INDIANA

CITY           SKY/WX    TMP DP  RH WIND       PRES   REMARKS
GOSHEN         FAIR      15   7  70 SW17      30.16S WCI  -1
6HR MIN TEMP:  14; 6HR MAX TEMP:  15;

LOGANSPORT +   FAIR      12   9  85 SW14      30.26S WCI  -3
PERU/GRISSOM   FAIR      15   9  78 W18       30.23F WCI  -2
6HR MIN TEMP:  13; 6HR MAX TEMP:  16;

ROCHESTER +    FAIR      18  10  73 SW13G23   30.21F WCI   4
SOUTH BEND     FAIR      13   7  77 SW14      30.17S WCI  -2
6HR MIN TEMP:  13; 6HR MAX TEMP:  14;

WARSAW +       FAIR      14   9  79 SW14      30.19S WCI  -1

$$

INZ006>009-017-018-025>027-181300-
NORTHEAST INDIANA

CITY           SKY/WX    TMP DP  RH WIND       PRES   REMARKS
AUBURN +       FAIR      16 -24  16 SW10G18   30.15F WCI   3
FORT WAYNE     FAIR      14   8  77 SW16      30.19F WCI  -2
6HR MIN TEMP:  13; 6HR MAX TEMP:  15;

HUNTINGTON +   FAIR      13   6  74 SW12      30.21R WCI  -1
6HR MIN TEMP:  12; 6HR MAX TEMP:  14;

KENDALLVILLE + FAIR      14   8  77 W20       30.13S WCI  -3

$$

INZ028-029-035-036-043>045-051>053-181300-
WEST CENTRAL INDIANA

CITY           SKY/WX    TMP DP  RH WIND       PRES   REMARKS
CRAWFORDSVL +  FAIR      10   6  85 MISG      30.31S
6HR MIN TEMP:   9; 6HR MAX TEMP:  10;

GREENCASTLE +  FAIR      10   5  79 SW7       30.34S WCI   0
LAFAYETTE      FAIR      14   8  77 SW12      30.29S WCI   0
6HR MIN TEMP:  14; 6HR MAX TEMP:  15;

TERRE HAUTE    FAIR      11   5  77 S9        30.38S WCI  -2
6HR MIN TEMP:   6; 6HR MAX TEMP:  11;


$$

INZ030>032-037>040-046>048-054>057-064-065-181300-
CENTRAL INDIANA

CITY           SKY/WX    TMP DP  RH WIND       PRES   REMARKS
COLUMBUS       CLEAR      9   3  78 S8        30.38  WCI  -4
FISHERS *+       N/A     10   9  92 SW8       30.32S WCI  -1
FRANKFORT +    FAIR      18  10  71 W14       30.29S WCI   4
6HR MIN TEMP:  13; 6HR MAX TEMP:  19;

GREENWOOD *+   FAIR      15   8  73 SW9       30.34R WCI   3
INDIANAPOLIS   FAIR      12   6  77 SW15      30.33R WCI  -4
6HR MIN TEMP:   9; 6HR MAX TEMP:  12;

-EAGLE CREEK   FAIR      11   5  77 SW8       30.31F WCI  -1
6HR MIN TEMP:   9; 6HR MAX TEMP:  12;

MARION +       FAIR      13   8  81 SW16      30.26S WCI  -4
MT COMFORT *+  FAIR      10   9  92 SW9       30.31S WCI  -2
SHELBYVILLE    FAIR       8   3  80 S9        30.33S WCI  -5
6HR MIN TEMP:   7; 6HR MAX TEMP:   9;

ZIONSVILLE +   FAIR      11   6  78 SW15      30.29S WCI  -5
6HR MIN TEMP:   8; 6HR MAX TEMP:  13;


$$

INZ033-034-041-042-049-050-058-059-181300-
EAST CENTRAL INDIANA

CITY           SKY/WX    TMP DP  RH WIND       PRES   REMARKS
MUNCIE         FAIR      13   5  70 SW12      30.26S WCI  -1
6HR MIN TEMP:  12; 6HR MAX TEMP:  14;

RICHMOND +     FAIR      12   7  79 W16       30.28S WCI  -4

$$

INZ060-061-067>069-081>083-085>088-181300-
SOUTHWEST INDIANA

CITY           SKY/WX    TMP DP  RH WIND       PRES   REMARKS
EVANSVILLE     FAIR       8   6  92 SW8       30.47F WCI  -4
6HR MIN TEMP:   7; 6HR MAX TEMP:  12;

HUNTINGBURG +  FAIR       8   5  87 S10       30.46F WCI  -6
6HR MIN TEMP:   7; 6HR MAX TEMP:   9;

WASHINGTON +   FAIR      10   4  75 S10       30.42S WCI  -4
6HR MIN TEMP:  10; 6HR MAX TEMP:  12;


$$

INZ062-063-066-070>080-084-089>092-181300-
SOUTH CENTRAL AND SOUTHEAST INDIANA

CITY           SKY/WX    TMP DP  RH WIND       PRES   REMARKS
BATESVILLE *+    N/A    N/A N/A N/A MISG        N/A
BEDFORD +      FAIR      10   5  79 SW6       30.38F WCI   1
BLOOMINGTON    FAIR      13   6  74 SW9       30.36S WCI   1
6HR MIN TEMP:  10; 6HR MAX TEMP:  13;

FRENCH LICK *+ FAIR      10   5  79 SW7       30.41S WCI   0
MADISON *+     FAIR      10   5  79 S6        30.41S WCI   1
NORTH VERNON + FAIR       7   3  85 S8        30.39F WCI  -6
SEYMOUR +      FAIR      10   5  79 S7        30.40F WCI   0

$$





USA.gov is the U.S. government's official web portal to all federal, state and local government web resources and services.